Theta_e
294 296 296 296 296 298 297 299 298 302 303 309 316 316 318 322 325 326 327 331 334 343 339 346 350 351 351 351 352 353 354 355 357 359 359 360 358 359 358 359 362 364 363 364
291 295 296 294 296 297 297 299 300 301 303 312 316 317 318 322 326 328 332 333 338 340 347 347 351 354 354 353 353 353 353 354 357 358 359 360 359 359 360 360 362 363 364 363
288 293 292 289 295 296 297 299 300 298 305 312 311 315 317 321 323 326 330 333 335 337 340 345 347 355 356 355 356 354 354 355 356 358 358 359 360 358 360 359 361 362 363 364
287 290 281 293 300 300 298 299 301 302 304 308 309 316 318 321 322 325 331 335 337 336 340 343 345 347 358 358 358 358 354 357 357 358 357 359 359 359 358 360 360 362 363 364
286 285 290 293 297 299 299 299 303 306 308 307 308 310 315 323 327 326 329 333 336 339 342 347 348 348 350 358 357 356 358 356 358 356 358 359 358 359 359 359 361 361 362 364
289 283 281 292 299 304 303 294 307 308 310 311 314 301 308 320 323 325 328 331 333 332 335 343 350 349 348 349 359 355 355 360 361 358 359 359 359 359 361 361 360 362 362 364
288 286 289 298 301 303 290 294 306 306 307 310 308 313 315 318 321 322 323 327 331 332 334 341 343 349 350 350 350 360 360 359 362 365 360 363 363 363 362 362 362 363 362 364
289 286 283 302 301 293 299 304 304 306 305 307 309 312 314 316 317 318 319 323 327 327 329 335 338 340 345 353 354 360 364 361 365 362 364 363 364 365 364 364 362 362 362 363
293 292 302 302 299 302 303 301 304 305 307 308 309 310 312 312 314 316 319 322 323 322 323 327 330 333 336 350 361 360 364 362 363 367 365 365 365 364 363 364 362 361 360 360
291 296 298 299 302 301 301 301 305 308 308 309 309 311 312 313 314 315 318 318 319 320 318 320 323 326 330 339 345 361 361 364 363 366 364 364 364 365 364 362 362 361 359 360
289 295 295 297 297 297 299 301 302 304 306 307 308 309 309 311 313 315 317 318 319 318 318 319 320 321 324 331 337 351 365 364 363 363 361 363 362 364 363 365 360 361 360 359
286 291 291 292 297 297 297 298 301 302 303 305 306 308 308 310 313 315 317 317 318 319 317 318 318 318 323 328 333 342 359 361 360 360 361 361 360 353 311 317 311 317 322 342
291 296 295 295 297 298 297 299 301 302 303 303 305 308 308 308 311 313 316 318 316 315 314 316 316 317 319 323 327 333 346 348 359 352 357 359 359 359 352 329 307 305 305 311
299 297 293 295 294 297 297 298 301 301 302 303 305 308 311 310 312 312 311 312 314 313 311 312 313 314 317 319 324 327 337 323 345 348 355 359 359 358 358 353 349 345 312 317
298 298 297 298 298 298 298 297 295 297 299 301 306 306 306 305 305 305 307 310 310 309 310 310 310 312 318 322 320 322 328 333 334 344 344 345 361 358 359 358 356 358 336 317
300 299 299 298 298 298 298 297 295 295 297 299 301 304 304 304 304 304 306 307 307 306 307 309 309 312 316 317 316 319 324 327 328 337 345 345 346 348 347 349 344 349 349 349
300 299 299 298 298 298 298 298 298 297 298 299 299 301 303 303 303 302 303 305 306 306 306 307 309 312 314 313 315 317 322 328 327 337 339 342 344 342 338 343 344 343 346 344
305 303 303 301 300 299 299 301 300 300 299 300 300 300 300 301 300 301 302 303 303 303 303 306 309 311 311 311 314 320 322 325 326 326 327 331 332 337 342 342 341 342 350 338
305 304 303 303 302 301 301 301 301 301 302 301 300 299 300 300 300 301 302 300 299 298 300 304 307 306 307 308 311 312 314 312 317 318 317 316 321 323 323 326 335 335 338 343
304 305 304 303 303 303 302 303 303 302 303 303 302 301 299 299 299 300 301 299 300 300 302 302 302 302 302 304 306 306 306 305 305 308 309 310 311 312 312 309 312 321 326 328
304 305 303 304 302 303 303 304 303 302 303 304 303 301 300 300 299 299 298 296 300 302 302 302 301 300 301 301 300 300 300 300 298 298 299 300 301 301 302 303 305 307 308 314
304 303 304 303 302 303 303 304 303 304 304 304 305 305 302 302 300 299 300 299 301 303 303 301 301 302 300 301 298 297 297 296 296 296 295 295 295 295 295 295 296 298 300 302
305 303 303 303 303 303 303 304 303 303 303 304 304 304 302 301 300 298 296 302 302 302 302 302 303 305 304 301 299 298 297 296 295 294 294 294 294 294 293 293 293 293 293 293
306 305 304 304 304 303 303 304 304 305 307 305 304 305 303 301 300 302 302 301 301 302 302 302 303 305 304 303 301 300 298 297 296 295 294 293 293 293 293 292 292 293 293 293
306 303 305 304 302 301 303 304 303 305 304 306 305 306 305 304 301 302 303 302 301 301 303 300 303 304 303 302 302 301 300 298 298 297 296 295 293 293 293 293 292 292 292 292
306 304 303 305 303 302 301 302 300 301 303 301 303 304 303 304 304 303 303 303 303 302 302 302 302 302 301 301 302 301 301 301 300 299 297 297 296 296 296 295 293 293 293 293
304 300 302 303 304 302 301 301 301 300 301 302 302 303 304 303 304 303 302 303 303 303 303 302 302 301 301 301 301 301 301 300 297 300 300 299 298 297 296 296 296 295 295 295
Wind_Speed
21 24 19 21 20 18 19 24 22 19 23 22 6 23 12 21 20 8 11 4 3 8 22 29 23 22 21 20 21 21 20 22 22 20 19 18 18 18 17 17 14 14 13 13
20 20 18 22 23 20 20 22 23 28 25 20 15 16 22 16 21 17 10 12 13 11 5 10 13 20 20 20 20 19 18 20 17 18 18 18 18 16 17 17 16 15 15 15
18 20 16 20 20 21 19 21 21 21 18 17 15 10 16 15 17 23 15 15 16 15 12 5 1 4 16 18 17 19 17 17 18 18 19 19 17 18 17 18 16 16 16 15
11 12 17 16 18 21 23 24 22 22 23 22 18 11 10 14 8 14 23 18 15 14 16 9 15 14 17 17 16 15 17 15 17 17 20 18 18 17 17 15 17 16 16 16
8 9 16 23 15 6 16 14 15 15 20 25 21 19 7 17 13 8 17 17 15 16 16 16 15 11 9 16 19 17 15 18 17 19 18 19 19 19 16 16 15 16 16 17
9 11 11 15 6 15 15 12 17 22 20 20 26 15 8 12 15 16 15 15 15 17 16 18 16 15 12 11 15 19 20 16 15 17 16 18 19 18 16 16 16 14 16 16
12 12 14 2 2 7 9 5 16 16 19 20 15 6 4 7 8 9 15 17 16 14 14 14 17 22 15 13 12 16 16 16 15 15 18 17 16 15 15 16 15 15 15 14
7 8 14 13 7 3 7 14 19 19 14 17 14 14 12 12 11 12 12 14 15 13 14 15 16 17 21 15 13 9 15 16 14 16 13 14 16 15 15 15 15 14 15 12
7 4 11 9 8 12 13 14 16 20 18 16 14 10 10 9 9 10 10 11 11 12 13 14 15 16 18 17 13 10 9 16 15 14 15 13 15 15 13 14 13 14 12 12
10 5 18 14 11 9 11 14 15 19 17 16 11 10 9 8 11 10 10 10 11 11 11 12 14 15 16 16 16 12 12 14 14 13 14 14 11 13 13 13 13 13 13 12
6 8 17 14 12 13 13 12 15 14 12 8 9 10 8 6 8 10 9 10 9 11 10 12 13 14 16 17 17 16 12 12 12 11 12 13 14 12 13 14 14 13 12 12
4 8 8 7 11 14 15 12 14 10 12 10 10 10 9 8 8 8 8 9 9 10 11 11 12 14 16 16 16 13 7 9 10 10 11 11 12 7 12 3 5 11 8 8
1 5 7 9 9 13 14 13 12 11 11 11 12 9 9 8 8 11 7 11 11 12 11 11 11 13 16 17 16 14 9 10 6 11 11 12 12 12 9 4 9 9 10 9
4 3 5 9 8 10 13 15 13 9 9 10 11 10 6 6 8 5 10 8 8 10 9 11 11 12 15 16 15 14 12 9 6 8 8 12 12 12 11 10 8 5 4 6
6 5 5 3 5 5 7 12 14 12 12 10 9 5 8 8 8 8 9 8 8 8 10 10 12 12 13 13 13 13 10 7 7 6 6 5 6 13 9 12 11 7 7 3
6 11 5 4 7 6 11 8 12 12 13 12 11 9 8 8 8 9 8 8 8 8 11 11 11 13 14 14 13 11 10 12 7 5 3 6 4 4 4 7 4 7 5 6
4 8 7 3 4 6 8 9 5 8 9 11 12 12 10 8 7 8 9 7 9 10 11 12 12 10 12 13 14 8 9 6 12 6 3 3 3 1 2 3 10 8 5 5
4 2 4 3 4 4 5 7 6 5 7 9 11 11 12 11 9 8 9 10 12 9 14 15 13 13 8 13 13 8 7 7 10 11 9 9 9 9 4 3 3 3 2 5
5 3 2 5 6 2 4 8 9 6 2 3 7 9 9 10 9 8 9 10 12 12 14 15 18 16 15 18 15 8 8 11 10 9 10 10 11 11 12 11 10 7 5 1
12 5 1 3 3 7 4 8 6 5 9 6 5 5 7 9 10 10 11 14 13 9 12 15 14 13 14 16 16 9 11 12 10 9 9 11 11 13 9 14 15 12 13 13
2 12 3 5 6 7 9 5 3 4 9 6 4 5 7 9 8 9 10 8 10 8 10 17 13 8 9 12 13 11 12 11 12 11 11 11 10 11 11 11 12 11 8 13
3 4 9 1 3 6 6 6 1 3 4 4 7 9 7 7 7 7 7 6 5 12 9 8 6 19 14 18 11 12 12 13 11 10 11 11 11 10 10 11 11 9 9 9
4 4 6 5 5 5 5 7 3 1 4 4 7 10 7 8 7 6 6 7 7 6 5 7 9 10 15 12 12 12 13 13 12 11 10 10 11 10 10 11 9 9 9 11
4 8 4 3 7 5 6 6 6 2 8 10 4 10 4 9 5 7 5 1 8 4 6 6 8 9 12 10 11 11 11 11 11 11 11 14 10 10 11 11 11 10 10 11
6 7 5 11 3 3 2 5 4 7 7 9 5 4 11 8 6 6 3 4 7 10 5 2 8 11 10 10 10 12 12 11 10 10 10 10 10 10 10 10 9 9 9 8
5 2 4 4 6 7 7 7 7 8 6 6 7 6 6 6 4 4 4 5 4 4 9 9 9 9 10 10 11 12 11 10 11 11 11 9 10 9 9 8 8 8 8 8
4 7 5 2 3 8 5 5 6 6 7 7 8 9 2 3 9 4 6 6 7 8 7 8 8 10 10 10 11 11 10 10 10 10 10 9 8 8 8 7 8 8 7 8
Wind_Direction
271 283 298 297 280 285 284 259 260 253 246 259 294 1 345 13 341 276 230 279 308 195 142 232 182 180 180 186 186 186 190 193 198 199 201 197 201 197 203 205 206 205 208 213
277 273 275 271 279 261 268 280 272 265 265 284 322 73 303 1 359 339 19 13 18 4 327 133 170 176 179 184 183 186 191 194 193 195 195 205 201 202 197 205 203 204 207 210
265 274 270 274 255 262 260 265 271 273 270 276 297 32 351 345 9 347 360 6 4 352 353 81 79 224 185 191 182 184 190 190 191 189 198 201 201 200 203 200 205 204 207 210
268 282 274 266 268 274 266 255 263 270 277 285 289 294 314 315 20 2 339 349 347 337 331 360 140 269 211 185 192 189 190 190 189 191 193 196 201 204 205 203 205 204 207 210
262 239 257 275 285 354 342 301 252 337 317 288 268 272 30 12 38 32 313 340 336 335 337 336 327 325 324 186 186 195 193 197 192 194 190 192 199 203 202 204 206 211 211 210
222 235 256 251 59 317 323 264 22 359 346 351 358 244 94 30 5 360 337 333 329 338 328 322 322 313 299 289 194 194 201 201 196 192 192 195 199 201 203 205 210 209 215 214
243 252 250 109 55 331 252 355 347 347 339 347 2 40 356 1 16 5 337 329 331 336 328 330 336 338 282 278 275 201 198 202 193 191 196 193 195 197 200 207 209 212 216 218
218 243 243 33 317 315 359 314 331 325 318 321 331 350 352 356 9 355 334 327 337 339 333 332 346 332 327 251 257 278 193 196 201 197 192 193 191 197 203 203 209 211 214 218
311 298 53 54 1 341 345 322 318 319 306 304 312 320 343 337 353 333 328 337 348 338 345 345 348 339 330 344 287 237 259 190 199 189 196 197 193 197 201 205 209 211 212 213
335 324 346 336 317 343 338 325 316 310 298 303 315 331 334 338 341 340 350 335 355 348 354 354 349 337 328 329 325 272 229 189 190 187 192 198 202 196 203 203 206 210 212 212
271 331 334 29 360 347 329 327 328 322 311 321 317 309 321 337 335 330 335 335 353 353 355 0 349 338 334 336 336 320 197 180 186 193 188 197 208 201 205 211 209 205 209 212
329 309 311 310 336 343 336 333 318 312 316 311 303 298 308 308 308 308 327 341 339 357 358 357 347 338 336 340 342 336 293 180 188 197 193 198 200 188 47 54 129 191 164 206
207 346 348 327 314 347 338 338 331 320 311 304 293 284 282 288 293 308 346 344 4 355 356 345 345 339 335 336 343 341 352 354 229 200 202 196 200 209 180 78 57 52 59 79
194 156 13 2 332 357 357 353 343 338 330 309 283 275 249 294 300 8 21 353 353 356 347 346 345 336 333 333 334 348 352 6 7 330 227 190 195 204 193 179 171 150 55 127
189 170 154 129 14 13 12 11 7 358 348 336 316 68 52 37 24 20 8 2 352 342 353 352 348 335 328 323 340 341 340 352 5 343 346 1 196 203 191 189 188 145 129 108
180 211 172 38 37 41 14 24 23 11 2 357 348 29 57 55 29 17 3 2 0 359 348 349 344 332 330 351 343 324 330 355 325 302 318 43 23 74 51 97 112 131 157 157
2 29 44 45 12 57 32 16 27 25 10 1 358 5 18 46 25 14 21 4 20 5 4 345 339 334 343 345 331 315 313 350 311 5 358 31 262 306 318 102 253 137 130 141
91 46 353 117 31 6 120 68 43 12 8 15 8 5 12 14 25 22 17 24 25 8 12 355 351 345 4 347 331 351 3 336 24 29 5 33 27 3 246 258 262 311 94 155
153 170 44 16 130 138 21 92 132 102 179 69 41 24 11 5 3 17 26 28 28 19 14 358 359 5 2 2 356 6 18 19 27 28 16 24 35 31 42 22 22 328 245 123
104 272 61 56 6 85 69 98 88 131 119 139 172 128 60 31 8 19 29 30 21 20 6 13 6 15 16 14 14 13 26 38 31 33 31 40 38 32 22 47 30 7 43 59
340 148 97 335 40 71 86 41 55 83 138 138 160 109 89 72 57 34 34 34 3 10 24 31 23 11 29 30 33 31 23 33 35 30 31 54 49 42 36 37 55 356 8 52
232 24 100 69 47 51 73 88 35 60 97 102 107 109 133 110 87 64 39 28 3 348 35 31 38 51 42 38 40 39 35 36 36 39 41 37 48 48 46 47 36 48 351 46
299 42 29 20 43 18 358 100 342 64 19 96 100 102 96 72 63 59 33 7 33 11 61 39 21 51 63 56 50 45 42 43 42 41 41 42 42 45 49 46 53 46 48 51
315 16 29 316 65 346 357 2 40 294 64 92 119 132 90 99 69 107 117 288 289 10 41 4 346 39 49 64 66 56 49 50 49 44 41 45 43 48 46 47 46 42 45 46
74 290 7 345 335 225 55 34 12 106 93 106 75 81 88 97 88 91 84 103 210 252 66 211 272 295 57 56 59 73 74 61 59 56 52 54 54 47 49 49 46 56 53 49
330 179 124 282 335 0 29 35 39 2 59 44 94 71 104 101 131 74 49 88 40 43 76 64 42 70 68 56 66 65 50 86 86 75 68 59 62 59 61 64 57 49 51 53
97 339 1 250 9 35 20 48 53 26 35 36 17 110 22 32 56 26 89 23 51 56 56 51 51 69 56 58 63 58 81 74 48 75 84 79 71 63 64 66 65 66 71 66